Location: Kalwaria Zebrzydowska
(49.8686°N, 19.6647°E)
Time: 05:39:47
(UTC+01:00)

ISS - Pass Details

Date: 01 February 2019
Orbit: 403 x 411 km, 51.6° (Epoch: 23 February)

Event Time Altitude Azimuth Distance (km) Brightness Sun altitude
Rises 18:54:34 0° 284° (WNW) 2,339 1.4 -22.5°
Reaches altitude 10° 18:56:39 10° 286° (WNW) 1,479 0.0 -22.8°
Enters shadow 18:59:01 43° 295° (WNW) 591 -2.7 -23.2°
